| Station | Date | Time | Temp (°F) | RH (%) | Dew Pt (°F) | Wind Spd (mph) | Wind Dir (°) | Wind Gust (mph) | Wind Gst Dir (°) | Latest Rain (In) | Soil Moist (%) | Soil Temp (°F) | Daily Rain (In) | Daily Min Temp (°F) | Daily Max Temp (°F) | Daily Max Wind (mph) |
|---|---|---|---|---|---|---|---|---|---|---|---|---|---|---|---|---|
| Hobart Mills | 5/6/26 | 1300 | 65.9 12.1 | 32 40 | 35.3 9.7 | 3.6 0.4 | NNE | 26 | 9.8 2.4 | E | 81 | 0.00 | - | 32.0 0.0 | 0.03 | 48.4 14.0 | 66.6 12.5 | 9.8 2.4 |
| Prosser Dam | 5/6/26 | 1300 | 66.0 11.9 | 30 33 | 33.6 8.0 | 10.1 6.2 | NE | 43 | 20.1 9.7 | NE | 39 | 0.00 | 24.9 0.5 | 48.3 2.2 | 0.01 | 36.0 0.7 | 66.5 11.8 | 20.1 9.7 |
| West Incline Village | 5/6/26 | 1300 | 57.7 11.5 | 55 32 | 41.8 0.8 | 4.8 1.2 | S | 170 | 11.6 4.3 | S | 174 | 0.00 | 34.6 1.0 | 44.0 1.2 | 0.00 | 41.7 9.2 | 59.0 11.9 | 12.9 4.8 |
| Incline Village (Fairview Blvd) | 5/6/26 | 1300 | 58.0 13.0 | 59 32 | 43.9 1.2 | 2.5 1.4 | SW | 224 | 6.5 1.9 | WSW | 239 | 0.00 | 27.3 1.4 | 49.5 0.2 | 0.00 | 41.2 7.7 | 58.4 12.4 | 7.8 2.7 |
| Incline Village (Diamond Peak) | 5/6/26 | 1300 | 54.7 12.5 | 60 39 | 41.1 0.9 | 3.2 3.2 | SW | 214 | 5.3 5.3 | S | 191 | 0.00 | 10.0 0.3 | 42.5 2.3 | 0.00 | 42.7 10.9 | 55.0 12.4 | 6.6 3.5 |
| Incline Village (Mill Creek) | 5/6/26 | 1300 | 56.3 11.0 | 65 21 | 44.7 3.4 | 1.0 0.8 | W | 281 | 5.3 3.4 | WNW | 286 | 0.00 | 11.4 0.0 | 45.0 0.1 | 0.00 | 40.4 6.6 | 57.0 11.6 | 6.3 2.7 |
| Incline Village (Lakeshore Blvd) | 5/6/26 | 1300 | 53.3 7.6 | 76 9 | 46.0 4.6 | 1.8 0.4 | WSW | 248 | 4.3 1.0 | WSW | 254 | 0.00 | 34.4 1.9 | 52.3 4.0 | 0.00 | 36.4 0.6 | 54.0 7.7 | 6.1 1.4 |
| Glenbrook | 5/6/26 | 1300 | 55.1 10.8 | 75 11 | 47.3 7.1 | 2.6 0.2 | W | 267 | 4.6 0.7 | WSW | 249 | 0.00 | 44.3 0.0 | 44.3 0.1 | 0.00 | 38.4 4.3 | 55.9 11.2 | 5.7 0.2 |
| Zephyr Cove | 5/6/26 | 1300 | 61.4 16.2 | 43 45 | 38.6 3.3 | 0.5 0.5 | SSW | 203 | 1.5 1.5 | S | 187 | 0.00 | - | 34.3 0.0 | 0.00 | 41.6 8.9 | 61.5 16.2 | 4.2 4.2 |
| Kingsbury Grade | 5/6/26 | 1300 | 57.1 12.4 | 46 44 | 36.4 5.6 | 3.3 0.2 | SW | 219 | 8.4 0.5 | SW | 223 | 0.00 | 7.1 0.5 | 48.6 2.7 | 0.00 | 38.1 6.1 | 59.2 13.8 | 9.1 0.2 |
| South Daggett Pass (Ridge) | 5/6/26 | 1300 | 57.7 17.7 | 52 48 | 40.2 0.2 | 2.1 1.8 | NW | 312 | 7.8 1.7 | NNE | 24 | 0.00 | 6.9 0.1 | 45.6 0.2 | 0.00 | 41.4 10.1 | 58.2 17.3 | 10.9 0.6 |
| Palomino Valley | 5/6/26 | 1300 | 71.6 9.8 | 24 27 | 32.4 11.0 | 3.3 0.5 | NNE | 22 | 8.6 0.1 | W | 278 | 0.00 | 6.8 0.1 | 61.9 1.0 | 0.00 | 45.8 0.4 | 72.6 9.8 | 15.2 5.0 |
| East Cold Springs | 5/6/26 | 1300 | 68.3 11.4 | 23 37 | 29.4 14.0 | 8.6 2.8 | NE | 56 | 14.9 3.7 | NE | 38 | 0.00 | 1.7 0.1 | 54.9 1.9 | 0.00 | 47.4 7.1 | 69.1 11.7 | 20.4 2.6 |
| Peavine | 5/6/26 | 1300 | 64.0 10.7 | 24 39 | 26.7 14.5 | 8.6 6.2 | NNE | 16 | 18.1 11.3 | NNE | 21 | 0.00 | - | 53.4 0.0 | 0.00 | 49.4 8.8 | 64.9 10.5 | 18.3 2.0 |
| West Verdi Peak | 5/6/26 | 1300 | 64.6 9.6 | 33 26 | 35.1 6.2 | 3.2 0.0 | NW | 322 | 10.3 1.1 | WNW | 289 | 0.00 | 22.2 0.1 | 51.0 2.2 | 0.00 | 43.0 5.9 | 65.0 9.7 | 13.8 2.1 |
| West Verdi | 5/6/26 | 1300 | 69.9 11.5 | 28 28 | 35.3 7.6 | 3.7 0.9 | N | 349 | 13.5 7.3 | WNW | 299 | 0.00 | 8.1 0.2 | 58.6 2.6 | 0.00 | 45.4 5.2 | 70.8 11.4 | 15.5 5.0 |
| South Verdi | 5/6/26 | 1300 | 67.6 11.8 | 24 32 | 30.0 10.5 | 10.7 2.6 | WSW | 248 | 19.8 5.7 | WSW | 248 | 0.00 | 16.7 0.1 | 58.6 6.7 | 0.00 | 46.5 5.4 | 68.2 11.8 | 21.9 1.5 |
| Northwest Reno | 5/6/26 | 1300 | 69.4 11.5 | 22 34 | 29.5 13.3 | 8.9 4.0 | NNE | 21 | 17.1 7.5 | NE | 50 | 0.00 | 23.5 0.2 | 59.9 2.4 | 0.00 | 53.2 9.7 | 70.6 12.1 | 23.0 9.4 |
| North Lawton | 5/6/26 | 1300 | 69.7 12.8 | 20 36 | 27.4 14.4 | 5.7 2.2 | NNW | 336 | 11.9 4.5 | N | 8 | 0.00 | - | 39.1 0.0 | 0.00 | 48.7 6.1 | 70.6 13.2 | 16.9 0.1 |
| West Reno (Mogul) | 5/6/26 | 1300 | 69.5 11.1 | 19 35 | 25.2 16.4 | 5.6 0.4 | ENE | 67 | 14.7 4.4 | NNE | 15 | 0.00 | 38.0 0.4 | 59.9 0.2 | 0.00 | 49.5 6.9 | 70.2 11.0 | 22.4 8.8 |
| Caughlin (Hunter Lake Trail) | 9/16/25 | 0800 | 59.7 3.5 | 41 11 | 35.9 2.7 | 0.0 0.0 | N | 0 | 0.0 0.0 | ENE | 66 | 0.00 | 15.7 0.0 | 69.8 0.5 | 0.00 | 55.7 3.2 | 67.7 9.1 | 9.4 0.9 |
| ArrowCreek | 5/6/26 | 1300 | 67.8 10.8 | 24 34 | 30.0 12.4 | 8.2 4.1 | N | 359 | 14.4 3.2 | NNW | 335 | 0.00 | - | 32.0 0.0 | 0.00 | 49.1 5.7 | 68.6 10.5 | 18.8 1.1 |
| Tracy | 5/6/26 | 1300 | 72.3 11.2 | 26 28 | 35.8 8.8 | 2.6 0.7 | NE | 42 | 9.9 2.0 | ENE | 64 | 0.00 | 7.8 0.0 | 60.9 1.2 | 0.00 | 53.9 6.1 | 73.2 11.8 | 16.3 2.7 |
| Virginia Highlands | 5/6/26 | 1300 | 64.9 13.5 | 28 42 | 30.7 11.2 | 4.5 1.5 | N | 357 | 14.4 6.3 | NNW | 343 | 0.00 | 8.7 0.5 | 55.3 0.0 | 0.00 | 51.0 10.9 | 65.7 13.8 | 16.0 3.7 |
| Virginia City | 5/6/26 | 1300 | 64.0 15.5 | 30 53 | 31.6 12.0 | 7.3 2.8 | NNE | 13 | 17.3 7.7 | N | 2 | 0.00 | 8.2 0.1 | 52.0 0.9 | 0.00 | 49.5 10.9 | 64.7 15.6 | 24.2 3.1 |
| Six Mile Canyon | 9/9/25 | 0630 | 60.2 9.6 | 37 6 | 33.7 4.8 | 4.1 2.5 | W | 277 | 6.1 2.9 | WNW | 286 | 0.00 | 12.5 0.0 | 75.5 0.7 | 0.00 | 57.9 7.6 | 64.4 1.9 | 7.0 3.9 |
| Mt Rose Highway | 4/30/26 | 0510 | 40.8 4.7 | 47 13 | 22.3 1.3 | 2.3 0.2 | WSW | 243 | 4.8 2.1 | WSW | 246 | 0.00 | 24.1 0.3 | 43.0 0.8 | 0.00 | 40.5 4.7 | 43.0 5.3 | 7.7 0.4 |
| Pleasant Valley | 5/6/26 | 1300 | 70.5 12.4 | 23 34 | 31.0 12.2 | 6.1 2.6 | N | 10 | 13.5 4.8 | NNE | 29 | 0.00 | 2.8 0.0 | 58.8 0.9 | 0.00 | 45.1 1.8 | 71.1 12.6 | 17.3 4.8 |
| New Washoe City | 5/6/26 | 1300 | 68.4 14.3 | 23 47 | 28.7 15.8 | 8.2 4.9 | NNE | 16 | 16.8 6.2 | N | 3 | 0.00 | 4.4 0.0 | 57.2 1.6 | 0.00 | 45.3 2.5 | 69.2 12.8 | 21.0 10.2 |
| Franktown Creek | 5/6/26 | 1300 | 68.9 13.6 | 30 36 | 36.5 7.8 | 4.3 3.0 | NE | 52 | 11.4 5.3 | NNE | 31 | 0.00 | 11.2 0.2 | 53.6 0.5 | 0.00 | 44.0 1.2 | 69.2 12.7 | 13.2 3.0 |
| Musgrove Creek | 5/6/26 | 1300 | 65.8 12.7 | 32 34 | 35.4 6.8 | 2.1 0.4 | NNE | 13 | 9.9 3.1 | NNE | 24 | 0.00 | 45.1 0.1 | 52.2 0.2 | 0.00 | 49.4 8.5 | 66.3 12.2 | 10.8 0.4 |
| East Carson | 11/23/24 | 0110 | 28.6 28.4 | - | - | 4.7 11.0 | SW | 220 | 14.7 10.1 | SW | 219 | 0.02 | - | 50.9 0.1 | 0.02 | -25.9 79.1 | 42.9 14.6 | 16.0 10.7 |
| Kings Canyon | 5/6/26 | 1300 | 67.7 14.9 | 29 45 | 34.4 10.3 | 6.8 2.2 | NNW | 335 | 14.5 5.0 | NNE | 14 | 0.00 | 15.1 0.1 | 55.6 2.2 | 0.00 | 43.3 1.8 | 68.2 15.0 | 21.7 9.2 |
| Carson City (Voltaire Canyon) | 5/6/26 | 1300 | 68.2 17.4 | 24 51 | 29.9 13.0 | 13.0 1.6 | NNW | 330 | 19.9 4.2 | NNW | 345 | 0.00 | 2.8 0.0 | 59.3 0.8 | 0.00 | 49.8 7.7 | 68.9 16.8 | 19.9 2.6 |
| Jacks Valley | 5/6/26 | 1300 | 68.4 17.9 | 25 48 | 31.7 10.7 | 8.3 3.4 | N | 5 | 18.9 10.3 | NNE | 27 | 0.00 | 13.8 0.9 | 61.0 5.8 | 0.00 | 44.5 3.0 | 69.3 18.3 | 20.1 9.7 |
| Genoa | 5/6/26 | 1300 | 71.3 18.2 | 26 45 | 34.3 9.5 | 2.7 1.3 | WNW | 288 | 9.7 4.8 | NW | 304 | 0.00 | 10.1 1.5 | 72.0 15.2 | 0.00 | 45.8 2.6 | 71.8 18.4 | 9.7 3.5 |
| South Genoa (Walleys Hot Springs) | 5/6/26 | 1300 | 70.8 17.6 | 31 38 | 38.6 4.9 | 3.2 0.4 | NNE | 30 | 9.1 2.9 | N | 350 | 0.00 | 13.9 0.6 | 59.2 0.2 | 0.00 | 42.8 1.4 | 71.4 17.9 | 10.9 0.2 |
| SW Gardnerville (HWY 88) | 5/6/26 | 1300 | 68.9 16.4 | 31 42 | 36.8 7.0 | 6.4 1.8 | NW | 314 | 12.3 4.5 | WNW | 300 | 0.00 | 3.4 0.0 | 54.0 0.4 | 0.00 | 41.6 1.6 | 69.2 16.4 | 12.3 0.9 |
| Sheridan | 5/6/26 | 1300 | 69.0 15.8 | 38 32 | 42.2 1.4 | 2.7 0.6 | ENE | 64 | 7.2 2.4 | NE | 54 | 0.00 | 5.8 0.7 | 56.7 1.1 | 0.00 | 43.8 0.7 | 70.2 16.9 | 10.9 2.2 |
| Ruhenstroth | 5/6/26 | 1300 | 68.5 17.4 | 29 44 | 35.2 7.6 | 3.5 1.5 | W | 276 | 8.6 3.5 | WNW | 296 | 0.00 | 12.6 0.1 | 55.5 1.8 | 0.00 | 42.6 0.4 | 69.3 18.0 | 13.8 2.1 |
| Double Spring | 5/6/26 | 1300 | 63.3 15.0 | 41 37 | 39.1 2.8 | 7.4 6.5 | NW | 321 | 13.5 8.9 | NNW | 344 | 0.00 | 30.4 0.8 | 52.6 1.3 | 0.00 | 37.5 0.7 | 64.5 15.8 | 20.0 9.6 |
| North Topaz Lake | 5/6/26 | 1300 | 64.5 16.0 | 44 35 | 42.4 0.1 | 4.0 0.9 | ENE | 67 | 10.6 2.6 | E | 98 | 0.00 | 9.6 0.6 | 70.7 15.9 | 0.00 | 47.3 7.1 | 65.6 16.6 | 14.9 5.8 |
| Wild Oat Mountain | 5/6/26 | 1300 | 62.7 16.4 | 46 34 | 41.4 1.0 | 4.6 0.7 | NE | 53 | 10.4 3.4 | NNE | 15 | 0.00 | 16.5 0.1 | 55.4 0.9 | 0.00 | 47.0 8.9 | 63.8 16.9 | 14.8 0.4 |
| Smith Valley | 5/6/26 | 1300 | 68.2 15.1 | 40 26 | 42.7 0.7 | 4.5 0.2 | N | 10 | 9.6 0.6 | N | 3 | 0.00 | 5.7 0.0 | 57.9 0.6 | 0.00 | 43.9 0.4 | 68.9 14.9 | 10.8 5.1 |
| Pine Grove Mountain | 5/6/26 | 1300 | 52.0 15.9 | 53 44 | 35.4 0.1 | 6.7 4.4 | NW | 319 | 16.5 11.2 | NNW | 329 | 0.00 | 23.4 1.5 | 47.0 4.2 | 0.00 | 44.1 12.4 | 53.0 16.2 | 16.5 7.3 |
| Paradise Hill | 5/6/26 | 1300 | 70.9 2.3 | 21 13 | 29.5 10.2 | 5.7 0.1 | E | 84 | 14.2 1.9 | ESE | 111 | 0.00 | 8.0 0.0 | 59.5 0.5 | 0.00 | 44.9 1.4 | 71.6 2.2 | 16.4 1.7 |
| Winnemucca | 5/6/26 | 1300 | 69.8 5.5 | 17 26 | 23.4 17.8 | 5.5 5.2 | N | 350 | 12.7 5.8 | N | 352 | 0.00 | 5.9 0.0 | 57.8 0.5 | 0.00 | 43.9 0.5 | 70.8 4.7 | 15.5 3.0 |
| NE Elko | 5/6/26 | 1300 | 64.3 4.2 | 28 19 | 30.6 9.2 | 3.7 9.9 | E | 81 | 9.8 11.7 | NE | 50 | 0.00 | 12.3 0.1 | 56.4 2.1 | 0.00 | 32.8 12.0 | 64.9 3.0 | 14.5 9.3 |
| North Elko | 5/6/26 | 1300 | 60.5 2.9 | 40 9 | 35.9 2.8 | 8.6 5.8 | SSW | 200 | 19.8 1.0 | SW | 221 | 0.00 | 28.2 0.3 | 53.3 2.6 | 0.00 | 39.4 3.6 | 61.1 2.7 | 19.8 2.6 |
| South Elko | 5/6/26 | 1300 | 74.4 6.4 | 46 21 | 52.4 16.3 | 5.8 5.5 | NW | 306 | 14.3 8.0 | WNW | 297 | 0.00 | 18.4 0.2 | 52.7 3.1 | 0.00 | 44.8 1.4 | 116.5 2.7 | 15.3 7.0 |
| Lamoille | 1/28/26 | 1720 | 33.2 0.5 | 65 17 | 22.8 6.3 | 5.8 1.5 | SSE | 166 | 7.7 1.9 | SE | 139 | 0.00 | 12.2 0.0 | 33.4 0.1 | 0.02 | 23.5 2.0 | 36.5 5.9 | 25.6 17.4 |
| Reid Gardner Sub | 5/6/26 | 1130 | 73.4 2.5 | 26 2 | 36.5 0.4 | 2.6 2.7 | SSW | 196 | 7.6 4.5 | SW | 218 | 0.00 | 24.0 0.1 | 70.1 0.4 | 0.00 | 50.0 4.6 | 74.0 1.7 | 7.6 7.8 |
| Corn Creek | 5/6/26 | 1300 | 77.5 11.1 | 22 7 | 35.9 3.0 | 10.8 7.5 | WNW | 282 | 17.6 6.7 | NW | 308 | 0.00 | 3.9 0.0 | 72.5 2.1 | 0.00 | 59.1 6.9 | 78.7 11.3 | 23.5 5.2 |
| Lucky Strike | 5/6/26 | 1300 | 65.1 9.8 | 23 8 | 26.9 1.0 | 11.1 4.6 | NW | 323 | 19.4 6.5 | N | 0 | 0.00 | 4.4 0.0 | 67.4 1.2 | 0.00 | 52.9 10.5 | 66.4 10.2 | 25.7 8.0 |
| Lower Angel Peak | 5/6/26 | 1300 | 59.6 10.5 | 27 16 | 25.9 1.9 | 8.9 4.2 | NNW | 341 | 17.4 8.1 | NNW | 336 | 0.00 | 10.1 0.1 | 53.9 0.3 | 0.00 | 42.1 8.5 | 60.0 10.1 | 22.0 6.2 |
| Angel Peak | 5/6/26 | 1300 | 51.1 13.2 | 33 28 | 22.7 2.7 | 2.6 0.4 | NW | 304 | 8.2 0.9 | W | 278 | 0.00 | 3.4 0.1 | 52.6 3.3 | 0.00 | 36.6 7.1 | 52.4 11.6 | 31.2 15.9 |
| Upper Kyle Canyon | 5/6/26 | 1300 | 56.2 11.8 | 28 23 | 23.5 4.0 | 5.4 2.8 | SSW | 210 | 11.2 6.3 | SSW | 209 | 0.00 | 13.5 0.1 | 52.5 0.4 | 0.00 | 39.2 8.7 | 57.4 12.0 | 20.7 2.9 |
| Mt Charleston | 5/6/26 | 1300 | 56.3 11.7 | 29 23 | 24.2 4.0 | 5.1 1.5 | E | 92 | 12.8 0.9 | E | 82 | 0.00 | 18.3 0.0 | 48.6 0.1 | 0.00 | 38.6 7.4 | 57.2 10.7 | 18.6 3.0 |
| Mid Kyle Canyon | 5/6/26 | 1300 | 61.4 11.8 | 26 20 | 26.4 3.5 | 6.7 1.6 | N | 2 | 15.5 0.4 | NE | 47 | 0.00 | 6.9 0.1 | 55.4 0.3 | 0.00 | 41.6 6.8 | 62.2 9.4 | 22.7 3.7 |
| Blue Diamond | 5/6/26 | 1300 | 74.0 10.4 | 26 4 | 37.1 5.1 | 8.9 2.9 | SE | 124 | 13.7 1.7 | SE | 146 | 0.00 | 3.5 0.0 | 67.9 0.3 | 0.00 | 55.8 7.8 | 75.0 9.8 | 18.6 0.1 |
| Artesian Sub | 5/6/26 | 1300 | 81.1 8.0 | 22 2 | 38.4 4.4 | 3.0 0.3 | E | 90 | 9.3 0.0 | E | 100 | 0.00 | 13.3 0.1 | 74.1 0.0 | 0.00 | 63.6 4.5 | 82.0 8.2 | 10.6 5.8 |
| North Henderson | 5/6/26 | 1300 | 80.0 8.0 | 22 3 | 38.2 3.5 | 4.0 0.0 | ENE | 63 | 8.8 1.4 | ESE | 116 | 0.00 | 8.8 0.0 | 78.4 0.1 | 0.00 | 62.7 1.2 | 81.0 8.2 | 16.2 3.5 |
| Sandy Valley | 5/6/26 | 1300 | 74.8 8.9 | 28 2 | 39.2 5.5 | 6.6 0.6 | WNW | 283 | 14.7 1.2 | WNW | 295 | 0.00 | 4.4 0.0 | 72.0 0.3 | 0.00 | 53.6 2.6 | 75.8 9.3 | 14.7 1.6 |
| Searchlight | 5/6/26 | 1310 | 73.1 10.5 | 28 5 | 37.9 4.9 | 2.5 1.3 | W | 277 | 7.2 3.2 | N | 7 | 0.00 | 4.6 0.0 | 68.9 0.1 | 0.00 | 47.8 1.0 | 73.9 10.0 | 13.5 0.1 |
| Laughlin | 5/6/26 | 1300 | 82.0 5.4 | 26 1 | 43.5 3.9 | 4.4 4.3 | SSW | 208 | 9.8 8.3 | S | 171 | 0.00 | 4.1 0.0 | 81.1 0.4 | 0.00 | 62.4 0.7 | 82.8 5.7 | 11.2 7.3 |
| 31Mission Hills | 5/6/26 | 1300 | 76.7 | 23 | 36.2 | 6.5 | N | 1 | 20.2 | N | 352 | 0.00 | 3.7 | 79.0 | 0.00 | 59.7 | 78.1 | 20.2 |
| Max | 82.0 | 76 | 52.4 | 13.0 | - | 20.2 | - | 0.00 | 45.1 | 81.1 | 0.03 | 63.6 | 116.5 | 31.2 | ||
| Avg | 66.2 | 33 | 34.9 | 5.5 | - | 12.3 | - | 0.00 | 13.5 | 56.1 | - | - | - | - | ||
| Min | 51.1 | 17 | 22.7 | 0.5 | - | 1.5 | - | 0.00 | 1.7 | 32.0 | 0.00 | 32.8 | 52.4 | 4.2 |
| Station | Date | Daily Max Temp (°F) | Daily Min Temp (°F) | Daily Max RH (%) | Daily Min RH (%) | Wind Spd (mph) | Wind Dir (°) | Daily Max Wind (mph) | Max Wind Dir (°) | Time of Max Wind | Daily Rain (In) | Weekly Precip (In) | Season Precip (In) | Soil Moist (%) | Fuel Temp (°F) | Fuel Moisture (%) | MinBV Day (V) |
|---|---|---|---|---|---|---|---|---|---|---|---|---|---|---|---|---|---|
| Hobart Mills | 12/23/25 | 51.8 11.3 | 33.9 2.1 | 88 12 | 42 34 | 2.1 1.7 | SW | 224 | 18.4 8.6 | WSW | 240 | 2307 | 0.65 | 6.21 | 15.12 | - | 37.6 2.8 | 42 19 | 8.0 0.7 |
| Prosser Dam | 5/5/26 | 62.5 15.7 | 36.7 0.7 | 98 1 | 40 38 | 2.6 0.3 | E | 80 | 17.1 2.9 | NNW | 332 | 1607 | 0.03 | 0.82 | 8.46 | 24.8 4.0 | 51.4 10.4 | 33 7 | 12.5 0.0 |
| West Incline Village | 5/5/26 | 51.5 10.2 | 32.5 0.8 | 100 0 | 61 12 | 1.5 0.4 | SE | 124 | 9.3 1.2 | S | 177 | 1333 | 0.42 | 1.36 | 7.94 | 35.5 3.1 | 46.7 9.0 | 53 16 | 12.4 0.0 |
| Incline Village (Fairview Blvd) | 5/5/26 | 51.8 9.8 | 33.5 1.4 | 100 0 | 70 1 | 0.4 0.4 | SW | 225 | 8.1 1.7 | WSW | 246 | 1441 | 0.37 | 1.30 | 7.48 | 28.9 1.5 | 44.9 6.9 | 38 2 | 12.4 0.0 |
| Incline Village (Diamond Peak) | 5/5/26 | 49.6 9.9 | 31.8 0.5 | 99 0 | 76 1 | 1.2 1.2 | NW | 306 | 8.6 2.6 | ENE | 72 | 1357 | 0.07 | 0.10 | 0.51 | 10.1 2.1 | - | - | 12.2 0.0 |
| Incline Village (Mill Creek) | 5/5/26 | 53.2 9.6 | 33.8 1.4 | 98 0 | 64 18 | 0.5 0.2 | W | 272 | 8.7 3.5 | WNW | 287 | 1553 | 0.13 | 1.27 | 7.18 | 11.3 1.5 | - | - | 12.2 0.0 |
| Incline Village (Lakeshore Blvd) | 5/5/26 | 51.5 5.7 | 35.8 2.4 | 100 0 | 69 10 | 0.6 0.1 | SSW | 203 | 5.7 2.0 | SSE | 159 | 1421 | 0.02 | 1.15 | 7.20 | 36.6 0.1 | 51.1 4.5 | 23 4 | 12.2 0.0 |
| Glenbrook | 5/5/26 | 54.8 9.6 | 34.2 1.6 | 97 0 | 56 18 | 1.4 0.5 | S | 178 | 9.9 2.4 | WSW | 254 | 1528 | 0.06 | 1.09 | 5.88 | 44.2 0.0 | 44.7 5.6 | 43 0 | 12.4 0.0 |
| Zephyr Cove | 5/5/26 | 54.4 10.4 | 32.6 0.1 | 100 2 | 59 21 | 0.1 0.1 | NNW | 328 | 2.6 1.6 | NW | 326 | 1659 | 0.01 | 0.11 | 0.68 | - | 40.7 8.6 | - | 12.4 0.0 |
| Kingsbury Grade | 5/5/26 | 55.8 12.7 | 32.0 0.1 | 98 1 | 55 27 | 0.7 0.2 | E | 96 | 11.4 3.9 | S | 170 | 1419 | 0.60 | 0.95 | 5.82 | 6.1 0.5 | 42.5 3.7 | 37 2 | 12.4 0.0 |
| South Daggett Pass (Ridge) | 5/5/26 | 51.9 11.8 | 31.2 0.4 | 100 0 | 61 24 | 2.2 0.3 | SW | 218 | 11.7 13.0 | ESE | 123 | 1349 | 0.46 | 0.73 | 4.05 | 6.7 0.2 | 41.3 4.3 | 34 6 | 12.4 0.0 |
| Palomino Valley | 5/5/26 | 72.0 7.5 | 46.2 1.3 | 87 2 | 26 16 | 2.7 3.0 | NNE | 13 | 19.9 11.7 | NW | 312 | 1553 | 0.00 | 0.27 | 1.41 | 6.8 0.0 | 60.3 5.5 | 1 10 | 12.5 0.0 |
| East Cold Springs | 5/5/26 | 66.6 7.5 | 40.3 0.5 | 91 2 | 34 18 | 7.4 4.5 | W | 267 | 19.6 6.0 | NW | 309 | 0039 | 0.09 | 0.68 | 2.09 | 1.6 0.1 | 56.6 7.5 | 33 6 | 12.6 0.0 |
| Peavine | 5/5/26 | 62.4 8.2 | 40.7 1.2 | 93 3 | 41 13 | 4.7 0.7 | N | 11 | 16.9 16.8 | NNW | 330 | 2333 | 0.00 | 0.67 | 2.14 | - | - | - | 12.5 0.0 |
| West Verdi Peak | 5/5/26 | 62.6 13.3 | 37.1 1.6 | 95 2 | 40 19 | 2.3 0.8 | NW | 314 | 14.9 5.3 | NW | 305 | 2053 | 0.00 | 0.78 | 6.39 | 22.0 5.3 | 55.4 12.0 | 29 6 | 12.5 0.0 |
| West Verdi | 5/5/26 | 68.2 12.6 | 40.2 0.6 | 94 1 | 34 24 | 2.9 1.0 | SW | 232 | 19.2 13.5 | WSW | 252 | 1944 | 0.00 | 0.65 | 5.92 | 8.3 0.4 | 57.9 10.5 | 32 0 | 12.5 0.0 |
| South Verdi | 5/5/26 | 65.7 16.0 | 41.1 1.2 | 86 2 | 35 24 | 10.5 10.7 | WSW | 248 | 23.4 18.1 | WSW | 248 | 0437 | 0.00 | 0.57 | 4.81 | 16.8 0.6 | 57.0 11.4 | 18 5 | 12.6 0.0 |
| Northwest Reno | 5/5/26 | 67.6 12.2 | 43.5 0.7 | 90 0 | 35 18 | 5.2 10.7 | N | 358 | 22.2 27.3 | NNW | 338 | 2219 | 0.00 | 0.33 | 1.33 | 23.4 0.2 | - | - | 12.5 0.1 |
| North Lawton | 5/5/26 | 66.8 11.9 | 42.5 0.9 | 84 4 | 35 22 | 5.7 5.4 | WSW | 245 | 16.8 14.2 | SW | 216 | 0208 | 0.00 | 0.44 | 2.14 | - | - | - | 12.5 0.0 |
| West Reno (Mogul) | 5/5/26 | 66.6 8.2 | 42.6 0.0 | 84 5 | 34 12 | 3.4 2.0 | WSW | 254 | 18.8 10.2 | SW | 228 | 2052 | 0.00 | 0.34 | 4.24 | 38.4 0.2 | 57.8 7.7 | 17 1 | 12.5 0.1 |
| Caughlin (Hunter Lake Trail) | 9/15/25 | 78.6 1.3 | 52.5 3.7 | 58 7 | 23 2 | 4.2 2.5 | S | 173 | 13.0 20.5 | NNE | 31 | 1309 | 0.00 | 0.32 | 8.05 | 15.7 0.1 | 67.4 0.5 | 7 1 | 12.7 0.0 |
| ArrowCreek | 5/5/26 | 67.2 11.5 | 43.4 0.1 | 93 0 | 33 20 | 3.1 2.2 | WNW | 288 | 18.6 11.7 | W | 259 | 2028 | 0.00 | 0.69 | 5.25 | - | - | - | 12.3 0.0 |
| Tracy | 5/5/26 | 70.9 8.3 | 47.8 0.1 | 81 6 | 31 14 | 6.3 4.1 | WSW | 237 | 19.0 3.6 | WSW | 252 | 0355 | 0.00 | 0.37 | 1.23 | 7.9 0.1 | 60.6 6.0 | 19 1 | 12.6 0.1 |
| Virginia Highlands | 5/5/26 | 61.9 10.0 | 40.1 0.2 | 98 1 | 38 22 | 3.0 0.0 | NW | 308 | 15.0 5.5 | NNW | 342 | 1746 | 0.00 | 0.44 | 2.15 | 9.2 1.6 | 52.0 7.0 | 33 8 | 12.5 0.1 |
| Virginia City | 5/5/26 | 56.7 7.2 | 38.6 0.0 | 99 1 | 55 6 | 4.5 1.3 | S | 175 | 21.1 5.0 | NNE | 18 | 0555 | 0.01 | 0.41 | 1.86 | 8.2 0.1 | 50.9 6.2 | 29 6 | 12.5 0.0 |
| Six Mile Canyon | 9/8/25 | 98.8 16.5 | 50.2 7.6 | 44 3 | 11 1 | 7.2 0.3 | WSW | 252 | 27.0 4.6 | SSE | 159 | 1325 | 0.00 | 0.00 | 0.89 | 12.6 0.1 | 69.7 3.0 | 4 0 | 12.4 0.2 |
| Mt Rose Highway | 4/29/26 | 56.6 7.9 | 35.6 4.1 | 63 16 | 31 6 | 2.2 0.0 | NW | 305 | 10.8 4.2 | NE | 35 | 1152 | 0.00 | 0.08 | 4.93 | 24.3 0.3 | 47.6 8.0 | 3 0 | 12.4 0.0 |
| Pleasant Valley | 5/5/26 | 66.4 13.2 | 43.3 0.0 | 93 1 | 39 20 | 3.8 0.3 | SW | 219 | 14.8 5.1 | SW | 230 | 1330 | 0.01 | 0.49 | 2.52 | 2.8 0.0 | 56.5 8.3 | 33 5 | 12.5 0.0 |
| New Washoe City | 5/5/26 | 64.4 12.2 | 42.8 0.3 | 95 2 | 43 21 | 2.2 0.0 | SSW | 199 | 18.5 4.0 | SW | 231 | 1342 | 0.01 | 0.45 | 1.76 | 4.4 0.1 | 55.6 9.4 | 39 6 | 12.5 0.0 |
| Franktown Creek | 5/5/26 | 65.1 13.0 | 42.8 0.2 | 98 1 | 42 23 | 1.4 0.3 | S | 190 | 12.3 1.4 | SE | 136 | 1310 | 0.01 | 0.64 | 5.97 | 11.1 0.0 | 52.7 6.8 | 29 2 | 12.6 0.0 |
| Musgrove Creek | 5/5/26 | 62.6 10.8 | 40.8 0.2 | 94 0 | 42 16 | 1.5 0.9 | SSW | 201 | 14.7 10.8 | SSW | 201 | 2119 | 0.01 | 0.97 | 8.00 | 45.0 0.7 | 53.4 9.1 | 36 1 | 12.4 0.0 |
| East Carson | 11/22/24 | 63.8 0.3 | 41.7 4.6 | 85 21 | 21 9 | 14.9 6.0 | SW | 224 | 46.6 12.7 | S | 171 | 1835 | 0.05 | 0.05 | 4.48 | 2.5 0.0 | 53.9 0.3 | 9 0 | 12.6 0.0 |
| Kings Canyon | 5/5/26 | 63.2 8.8 | 41.5 0.2 | 98 3 | 45 13 | 2.7 0.0 | SSE | 162 | 15.6 1.5 | WNW | 287 | 2040 | 0.05 | 0.66 | 4.52 | 15.2 0.0 | 55.6 8.5 | 31 1 | 12.5 0.0 |
| Carson City (Voltaire Canyon) | 5/5/26 | 62.7 8.3 | 42.1 0.1 | 95 7 | 47 11 | 7.8 0.2 | S | 191 | 19.9 4.5 | WSW | 244 | 2328 | 0.01 | 1.23 | 1.32 | 2.8 0.0 | - | - | 12.5 0.0 |
| Jacks Valley | 5/5/26 | 61.8 8.3 | 41.5 0.0 | 95 4 | 47 6 | 3.4 1.8 | SSW | 210 | 16.4 12.7 | WNW | 282 | 2022 | 0.13 | 0.52 | 2.50 | 12.8 3.2 | 53.0 6.3 | 35 5 | 12.6 0.0 |
| Genoa | 5/5/26 | 64.6 8.5 | 43.2 0.6 | 97 2 | 46 7 | 0.4 0.3 | NE | 50 | 9.9 10.1 | SSW | 193 | 1947 | 0.15 | 0.48 | 5.22 | 11.6 6.1 | 51.6 2.6 | 40 15 | 12.2 0.0 |
| South Genoa (Walleys Hot Springs) | 5/5/26 | 64.6 7.6 | 44.2 0.2 | 94 6 | 45 6 | 3.1 1.3 | S | 181 | 17.6 14.0 | NW | 314 | 2039 | 0.14 | 0.40 | 3.35 | 14.0 0.4 | 55.0 4.9 | 26 8 | 12.5 0.0 |
| SW Gardnerville (HWY 88) | 5/5/26 | 63.5 7.5 | 43.2 1.2 | 96 4 | 43 11 | 4.0 1.6 | S | 169 | 15.5 12.8 | WSW | 250 | 2315 | 0.01 | 0.04 | 0.60 | 3.4 0.0 | 53.7 4.4 | 30 6 | 12.4 0.0 |
| Sheridan | 5/5/26 | 64.2 6.8 | 43.1 1.1 | 95 2 | 40 10 | 2.7 0.8 | WNW | 303 | 12.3 3.7 | WSW | 241 | 2306 | 0.12 | 0.40 | 3.46 | 6.0 3.7 | 54.9 4.1 | 28 6 | 12.5 0.0 |
| Ruhenstroth | 5/5/26 | 63.4 9.0 | 42.2 2.2 | 95 3 | 45 8 | 3.4 2.3 | SSE | 166 | 16.8 12.7 | S | 190 | 2344 | 0.61 | 0.64 | 2.06 | 12.7 0.0 | 52.5 2.6 | 35 11 | 12.6 0.0 |
| Double Spring | 5/5/26 | 55.9 6.0 | 38.2 0.8 | 96 5 | 57 4 | 4.5 0.1 | NE | 39 | 25.8 2.8 | SE | 126 | 2251 | 0.34 | 0.90 | 2.44 | 29.4 1.0 | 48.2 4.1 | 39 1 | 12.5 0.0 |
| North Topaz Lake | 5/5/26 | 57.6 4.7 | 40.2 2.1 | 96 8 | 50 1 | 3.2 1.9 | WNW | 292 | 32.0 7.1 | NE | 45 | 2230 | 0.29 | 0.59 | 1.68 | 9.0 0.0 | 48.8 1.8 | 36 9 | 12.5 0.0 |
| Wild Oat Mountain | 5/5/26 | 56.8 4.5 | 38.1 2.0 | 94 5 | 55 1 | 3.6 1.6 | S | 187 | 20.5 3.0 | SW | 226 | 2307 | 0.26 | 0.52 | 1.77 | 16.5 0.0 | 48.8 3.6 | 30 7 | 12.5 0.0 |
| Smith Valley | 5/5/26 | 62.9 0.9 | 43.6 1.7 | 92 5 | 42 2 | 2.9 2.2 | S | 177 | 25.1 0.6 | NE | 41 | 2219 | 0.29 | 0.51 | 1.37 | 5.8 0.1 | 56.0 4.4 | 32 13 | 12.5 0.0 |
| Pine Grove Mountain | 5/5/26 | 47.5 4.0 | 31.7 0.2 | 98 1 | 52 6 | 4.3 1.8 | NW | 309 | 29.4 6.8 | E | 95 | 2256 | 0.25 | 0.57 | 0.91 | 20.3 5.5 | 40.2 1.2 | 32 12 | 12.5 0.1 |
| Paradise Hill | 5/5/26 | 73.6 2.2 | 43.5 3.3 | 82 18 | 20 0 | 6.4 1.3 | N | 350 | 26.0 8.7 | N | 5 | 1758 | 0.00 | 0.00 | 2.33 | 8.0 0.0 | 63.5 1.7 | 7 1 | 12.6 0.0 |
| Winnemucca | 5/5/26 | 72.4 2.7 | 44.4 0.0 | 86 10 | 23 6 | 7.3 0.1 | SSW | 204 | 24.3 6.5 | ENE | 63 | 1550 | 0.00 | 0.00 | 2.90 | 5.9 0.0 | 63.6 0.3 | 4 2 | 12.6 0.0 |
| NE Elko | 5/5/26 | 61.9 12.1 | 41.5 8.0 | 88 18 | 43 30 | 8.5 3.6 | SW | 230 | 23.8 11.2 | SW | 215 | 1154 | 0.02 | 0.04 | 2.33 | 12.4 0.0 | 54.3 4.0 | 11 6 | 12.6 0.1 |
| North Elko | 5/5/26 | 61.2 10.6 | 43.0 2.5 | 84 2 | 44 29 | 8.8 2.5 | SW | 233 | 28.8 9.6 | WSW | 244 | 1340 | 0.41 | 0.44 | 2.48 | 28.5 0.0 | 50.9 10.1 | 15 10 | 12.6 0.0 |
| South Elko | 5/5/26 | - | 46.2 2.9 | 100 7 | 46 27 | 6.5 0.3 | SSW | 192 | 27.7 3.2 | WNW | 288 | 1443 | 0.04 | 0.04 | 2.71 | 18.6 0.1 | 50.2 9.5 | 17 13 | 12.6 0.0 |
| Lamoille | 1/27/26 | 42.4 2.7 | 21.5 6.4 | 60 0 | 25 6 | 2.6 0.5 | SE | 125 | 8.2 4.1 | SE | 139 | 0137 | 0.00 | 0.00 | 0.67 | 12.3 0.2 | 26.9 1.3 | 11 0 | 8.5 2.8 |
| Reid Gardner Sub | 5/5/26 | 77.9 2.7 | 54.6 9.7 | 48 11 | 18 3 | 4.5 4.0 | SSW | 203 | 15.5 10.7 | SE | 134 | 1426 | 0.00 | 0.00 | 0.56 | 24.6 0.3 | 74.6 1.3 | 2 0 | 12.6 0.0 |
| Corn Creek | 5/5/26 | 71.2 4.5 | 52.1 4.8 | 52 9 | 23 12 | 6.0 7.1 | E | 98 | 18.6 22.5 | ENE | 63 | 1326 | 0.00 | 0.00 | 0.63 | 3.9 0.1 | 67.8 0.3 | 2 0 | 12.5 0.0 |
| Lucky Strike | 5/5/26 | 59.4 5.5 | 42.4 5.7 | 54 7 | 26 14 | 5.0 4.2 | SSE | 167 | 18.3 13.9 | W | 270 | 2342 | 0.00 | 0.00 | 1.21 | 4.4 0.0 | 56.2 4.0 | 3 1 | 12.5 0.1 |
| Lower Angel Peak | 5/5/26 | 54.2 5.8 | 33.6 3.4 | 65 14 | 31 20 | 4.1 1.6 | SSW | 193 | 15.8 9.3 | NW | 319 | 1124 | 0.00 | 0.00 | 1.93 | 10.2 0.1 | 49.2 5.3 | 3 0 | 12.5 0.1 |
| Angel Peak | 5/5/26 | 44.7 4.2 | 29.5 6.0 | 75 15 | 37 24 | 5.5 2.6 | E | 95 | 35.6 1.1 | WNW | 302 | 0059 | 0.01 | 0.02 | 84.72 | 3.5 0.0 | 39.2 6.2 | 6 1 | 12.5 0.0 |
| Upper Kyle Canyon | 5/5/26 | 46.6 5.3 | 30.5 4.0 | 60 6 | 34 22 | 5.1 0.1 | N | 7 | 30.9 4.2 | W | 278 | 0007 | 0.00 | 0.00 | 5.08 | 13.7 0.0 | 45.7 6.2 | 7 0 | 12.8 0.1 |
| Mt Charleston | 5/5/26 | 48.0 3.4 | 31.3 4.5 | 60 7 | 34 19 | 2.2 2.2 | E | 87 | 15.6 9.7 | E | 95 | 1208 | 0.00 | 0.00 | 5.28 | 18.3 0.1 | 50.9 3.3 | 26 1 | 12.5 0.0 |
| Mid Kyle Canyon | 5/5/26 | 54.3 4.8 | 34.8 6.0 | 57 9 | 35 22 | 6.5 4.0 | NW | 326 | 19.0 12.3 | ENE | 77 | 0850 | 0.00 | 0.00 | 2.08 | 7.0 0.0 | 53.8 1.0 | 6 0 | 12.7 0.0 |
| Blue Diamond | 5/5/26 | 69.4 1.0 | 48.1 6.6 | 57 12 | 25 10 | 6.0 2.8 | NW | 318 | 21.7 7.9 | NW | 312 | 1657 | 0.00 | 0.00 | 0.85 | 3.5 0.0 | - | 5 1 | 12.7 0.0 |
| Artesian Sub | 5/5/26 | 78.3 2.0 | 59.1 6.0 | 45 5 | 17 6 | 4.2 3.0 | SE | 131 | 16.4 8.0 | ESE | 117 | 1220 | 0.00 | 0.00 | 0.35 | 13.3 0.0 | - | 0 0 | 12.6 0.0 |
| North Henderson | 5/5/26 | 77.9 1.7 | 61.6 3.8 | 42 4 | 17 6 | 5.9 4.7 | SSW | 202 | 19.6 8.2 | SSW | 201 | 0108 | 0.00 | 0.00 | 0.52 | 8.8 0.0 | 75.0 0.8 | 5 1 | 12.7 0.0 |
| Sandy Valley | 5/5/26 | 69.9 1.5 | 51.0 4.0 | 61 1 | 27 8 | 4.4 3.0 | SW | 224 | 18.8 7.6 | WSW | 258 | 1605 | 0.00 | 0.00 | 0.62 | 4.5 0.1 | 65.3 1.2 | 5 1 | 12.7 0.0 |
| Searchlight | 5/5/26 | 67.2 2.2 | 46.9 5.4 | 67 14 | 27 9 | 4.0 6.2 | W | 274 | 15.8 14.2 | S | 186 | 1504 | 0.00 | 0.00 | 0.51 | 4.6 0.1 | 62.6 2.8 | 2 1 | 12.5 0.1 |
| Laughlin | 5/5/26 | 80.4 2.3 | 63.1 5.9 | 49 10 | 21 5 | 6.2 6.1 | SSW | 199 | 20.0 8.0 | S | 175 | 1423 | 0.00 | 0.00 | 0.29 | 4.1 0.0 | 74.3 2.5 | 5 0 | 12.8 0.0 |
| 31Mission Hills | 5/5/26 | 74.0 | 50.0 | 42 | 18 | 6.5 | S | 172 | 24.7 | WSW | 238 | 1509 | 0.00 | 0.00 | 0.00 | 3.9 | 74.6 | 6 | 13.1 |
| Max | 80.4 | 63.1 | 100 | 76 | 10.5 | - | 35.6 | - | - | 0.61 | - | 84.72 | 45.0 | 75.0 | 53 | 13.1 | |
| Avg | - | - | - | - | 4.0 | - | - | - | - | - | - | - | 13.8 | 54.5 | 22 | - | |
| Min | 44.7 | 29.5 | 42 | 17 | 0.1 | - | 2.6 | - | - | 0.00 | - | 0.00 | 1.6 | 39.2 | 0 | 12.2 |